Sigfox identifier Datetime Temperature Humidity SNR
00395479 2018-10-09 09:03:30 20.5 38 13.7
00395479 2018-10-09 07:58:24 20.5 38 13.6
00395479 2018-10-09 05:48:04 20.5 38 13.7
00395479 2018-10-09 04:42:56 20.5 38 13.5
00395479 2018-10-09 01:27:36 20.5 37 12.8
00395479 2018-10-09 00:22:29 20.4 37 12.8
00395479 2018-10-08 23:17:22 20.4 37 12.8
00395479 2018-10-08 22:12:16 20.4 37 12.7
00395479 2018-10-08 20:01:59 20.3 37 12.8
00395479 2018-10-08 18:56:51 20.3 37 13
00395479 2018-10-08 17:51:44 20.3 37 13.1
00395479 2018-10-08 16:46:37 20.3 36 12.9
00395479 2018-10-08 15:41:30 20.4 36 10.7
00395479 2018-10-08 14:36:24 20.5 36 10.9
00395479 2018-10-08 13:31:13 20.5 36 10.8
00395479 2018-10-08 11:20:57 20.5 35 10.8
00395479 2018-10-08 10:15:44 20.5 35 10.8
00395479 2018-10-08 07:00:23 20.5 35 10.8
00395479 2018-10-08 05:55:14 20.5 35 11
00395479 2018-10-08 03:44:56 20.6 36 11
00395479 2018-10-08 02:39:48 20.6 36 11
00395479 2018-10-08 00:29:34 20.7 37 11.2
00395479 2018-10-07 19:03:44 20.7 38 11.2
00395479 2018-10-07 17:58:35 20.7 38 11.3
00395479 2018-10-07 11:27:37 20.7 38 11.4
00395479 2018-10-07 08:12:11 20.8 39 11.6
00395479 2018-10-07 07:07:00 20.9 39 11.4
00395479 2018-10-07 06:01:51 20.9 39 11.4
00395479 2018-10-07 04:56:44 21 39 11.7
00395479 2018-10-07 03:51:33 21 39 11.9
00395479 2018-10-07 00:36:02 21 39 11.9
00395479 2018-10-06 22:25:40 21 39 11.8
00395479 2018-10-06 19:10:13 20.9 39 11.9
00395479 2018-10-06 18:05:03 21 40 11.9
00395479 2018-10-06 16:59:51 21 40 11.8
00395479 2018-10-06 15:54:38 21 40 11.7
00395479 2018-10-06 14:49:30 21 40 11.6
00395479 2018-10-06 13:44:17 21 40 11.6
00395479 2018-10-06 12:39:12 21 40 11.5
00395479 2018-10-06 11:34:00 21.1 39 11.8
00395479 2018-10-06 09:23:37 21.2 40 13.1
00395479 2018-10-06 08:18:23 21.2 40 13.1
00395479 2018-10-06 07:13:13 21.2 40 13.7
00395479 2018-10-06 06:08:01 21.2 40 13.7
00395479 2018-10-06 03:57:37 21.2 41 13.8
00395479 2018-10-06 02:52:24 21.2 41 14
00395479 2018-10-06 01:47:14 21.3 42 14
00395479 2018-10-06 00:42:04 21.2 42 14.3
00395479 2018-10-05 23:36:54 21.2 42 14.6
00395479 2018-10-05 21:26:32 21.3 42 14.7
00395479 2018-10-05 20:21:18 21.3 43 14.7
00395479 2018-10-05 19:16:11 21.2 43 15.1
00395479 2018-10-05 18:11:03 21.3 43 15.2
00395479 2018-10-05 16:00:40 21.2 43 15.3
00395479 2018-10-05 14:55:30 21 44 15.3
00395479 2018-10-05 12:45:11 20.9 40 18
00395479 2018-10-05 11:40:03 20.7 39 18.7
00395479 2018-10-05 10:34:52 20.6 36 18.9
00395479 2018-10-05 08:24:39 20.5 32 19.1
00395479 2018-10-05 05:09:08 20.5 30 19.2
00395479 2018-10-04 18:17:20 20.7 30 19.4
00395479 2018-10-04 15:01:44 20.6 30 19.5
00395479 2018-10-04 13:56:29 20.5 31 19.7
00395479 2018-10-04 11:46:07 20.5 31 19.9
00395479 2018-10-04 10:40:58 20.7 33 20.1
00395479 2018-10-04 09:35:44 20.5 32 20
00395479 2018-10-04 08:30:31 20.3 32 20.2
00395479 2018-10-04 07:25:19 20.3 34 20.3
00395479 2018-10-04 06:20:05 20.3 36 20.5
00395479 2018-10-04 05:14:53 20.4 36 20.8
00395479 2018-10-04 04:09:41 20.4 37 21
00395479 2018-10-04 03:04:29 20.5 37 21.4
00395479 2018-10-04 01:59:16 20.5 38 21.6
00395479 2018-10-04 00:54:02 20.5 39 21.9
00395479 2018-10-03 23:48:47 20.5 39 22.3
00395479 2018-10-03 22:43:34 20.6 40 22.8
00395479 2018-10-03 21:38:21 20.7 40 23.2
00395479 2018-10-03 20:33:08 20.7 40 23.9
00395479 2018-10-03 19:27:54 20.7 41 24.6
00395479 2018-10-03 18:22:38 20.7 40 25.8
00395479 2018-10-03 17:17:23 21 42 23.2
00395479 2018-10-03 16:12:09 21 44 21.5
00395479 2018-10-03 15:06:56 21 55 0